Location: C.E.K. Mees Observatory
(42.7003°N, 77.4088°W)
Time: 08:05:14
(UTC-04:00)

Envisat - Pass Details

Date: 08 October 2017
Orbit: 764 x 766 km, 98.2° (Epoch: 22 October)

Event Time Altitude Azimuth Distance (km) Brightness Sun altitude
Exits shadow 22:21:38 15° 274° (W) 1,962 5.6 -40.0°
Drops below altitude 10° 22:24:18 10° 306° (NW) 2,307 6.1 -40.4°
Sets 22:27:38 0° 328° (NNW) 3,239 7.0 -40.9°
